Time,TemperatureF,DewpointF,PressureIn,WindDirection,WindDirectionDegrees,WindSpeedMPH,WindSpeedGustMPH,Humidity,HourlyPrecipIn,Conditions,Clouds,dailyrainin,SoftwareType,DateUTC
2013-03-11 00:04:00,45.4,35.5,30.30,ESE,122,1.0,1.0,68,0.00,,,0.00,Wunderground v.1.15,2013-03-10 10:04:00,
2013-03-11 00:13:00,45.2,35.6,30.30,East,101,1.0,1.0,69,0.00,,,0.00,Wunderground v.1.15,2013-03-10 10:13:00,
2013-03-11 00:19:00,45.1,35.5,30.31,ESE,120,1.0,1.0,69,0.00,,,0.00,Wunderground v.1.15,2013-03-10 10:19:00,
2013-03-11 00:28:00,44.4,35.2,30.30,SSE,148,0.0,0.0,70,0.00,,,0.00,Wunderground v.1.15,2013-03-10 10:28:00,
2013-03-11 00:33:00,44.2,35.4,30.31,SSE,148,0.0,0.0,71,0.00,,,0.00,Wunderground v.1.15,2013-03-10 10:33:00,
2013-03-11 00:38:00,43.7,35.3,30.31,SSE,148,0.0,0.0,72,0.00,,,0.00,Wunderground v.1.15,2013-03-10 10:38:00,
2013-03-11 00:44:00,43.4,35.0,30.30,SE,130,0.0,1.0,72,0.00,,,0.00,Wunderground v.1.15,2013-03-10 10:44:00,
2013-03-11 00:53:00,42.9,35.5,30.30,ESE,122,1.0,1.0,75,0.00,,,0.00,Wunderground v.1.15,2013-03-10 10:53:00,
2013-03-11 00:59:00,42.9,35.5,30.31,SE,132,1.0,1.0,75,0.00,,,0.00,Wunderground v.1.15,2013-03-10 10:59:00,
2013-03-11 01:04:00,43.0,35.6,30.31,SE,140,1.0,1.0,75,0.00,,,0.00,Wunderground v.1.15,2013-03-10 11:04:00,
2013-03-11 01:13:00,43.3,36.2,30.30,ESE,118,1.0,1.0,76,0.00,,,0.00,Wunderground v.1.15,2013-03-10 11:13:00,
2013-03-11 01:24:00,42.9,36.2,30.31,ESE,118,0.0,0.0,77,0.00,,,0.00,Wunderground v.1.15,2013-03-10 11:24:00,
2013-03-11 01:33:00,42.4,35.7,30.30,ESE,108,1.0,1.0,77,0.00,,,0.00,Wunderground v.1.15,2013-03-10 11:33:00,
2013-03-11 01:39:00,42.2,36.2,30.30,ESE,121,1.0,1.0,79,0.00,,,0.00,Wunderground v.1.15,2013-03-10 11:39:00,
2013-03-11 01:49:00,42.6,36.5,30.30,East,98,1.0,1.0,79,0.00,,,0.00,Wunderground v.1.15,2013-03-10 11:49:00,
2013-03-11 01:59:00,42.5,36.4,30.31,East,82,0.0,0.0,79,0.00,,,0.00,Wunderground v.1.15,2013-03-10 11:59:00,
2013-03-11 02:04:00,42.2,36.2,30.31,East,82,0.0,0.0,79,0.00,,,0.00,Wunderground v.1.15,2013-03-10 12:04:00,
2013-03-11 02:14:00,41.5,36.1,30.31,East,82,0.0,0.0,81,0.00,,,0.00,Wunderground v.1.15,2013-03-10 12:14:00,
2013-03-11 02:23:00,41.3,36.2,30.31,East,82,0.0,0.0,82,0.00,,,0.00,Wunderground v.1.15,2013-03-10 12:23:00,
2013-03-11 02:29:00,41.1,36.3,30.31,East,82,0.0,0.0,83,0.00,,,0.00,Wunderground v.1.15,2013-03-10 12:29:00,
2013-03-11 02:34:00,40.9,35.8,30.31,East,82,0.0,0.0,82,0.00,,,0.00,Wunderground v.1.15,2013-03-10 12:34:00,
2013-03-11 02:44:00,40.3,35.5,30.32,East,82,0.0,0.0,83,0.00,,,0.00,Wunderground v.1.15,2013-03-10 12:44:00,
2013-03-11 02:53:00,40.4,35.9,30.32,East,82,0.0,0.0,84,0.00,,,0.00,Wunderground v.1.15,2013-03-10 12:53:00,
2013-03-11 02:59:00,40.1,35.4,30.32,East,82,0.0,0.0,83,0.00,,,0.00,Wunderground v.1.15,2013-03-10 12:59:00,
2013-03-11 03:04:00,39.7,35.3,30.32,East,82,0.0,0.0,84,0.00,,,0.00,Wunderground v.1.15,2013-03-10 13:04:00,
2013-03-11 03:14:00,39.5,35.7,30.32,East,82,0.0,0.0,86,0.00,,,0.00,Wunderground v.1.15,2013-03-10 13:14:00,
2013-03-11 03:24:00,39.9,35.2,30.33,ENE,61,0.0,0.0,83,0.00,,,0.00,Wunderground v.1.15,2013-03-10 13:24:00,
2013-03-11 03:34:00,39.9,34.9,30.33,ENE,61,0.0,0.0,82,0.00,,,0.00,Wunderground v.1.15,2013-03-10 13:34:00,
2013-03-11 03:44:00,40.1,34.7,30.33,East,82,0.0,0.0,81,0.00,,,0.00,Wunderground v.1.15,2013-03-10 13:44:00,
2013-03-11 03:53:00,39.9,34.5,30.33,East,82,0.0,0.0,81,0.00,,,0.00,Wunderground v.1.15,2013-03-10 13:53:00,
2013-03-11 03:59:00,39.8,34.4,30.34,ENE,57,0.0,0.0,81,0.00,,,0.00,Wunderground v.1.15,2013-03-10 13:59:00,
2013-03-11 04:04:00,39.7,34.3,30.34,North,349,0.0,1.0,81,0.00,,,0.00,Wunderground v.1.15,2013-03-10 14:04:00,
2013-03-11 04:14:00,39.8,33.8,30.34,NNW,338,0.0,1.0,79,0.00,,,0.00,Wunderground v.1.15,2013-03-10 14:14:00,
2013-03-11 04:23:00,39.6,33.6,30.34,ENE,74,0.0,1.0,79,0.00,,,0.00,Wunderground v.1.15,2013-03-10 14:23:00,
2013-03-11 04:29:00,39.8,33.5,30.34,ENE,70,1.0,1.0,78,0.00,,,0.00,Wunderground v.1.15,2013-03-10 14:29:00,
2013-03-11 04:34:00,39.9,33.6,30.35,ENE,78,1.0,1.0,78,0.00,,,0.00,Wunderground v.1.15,2013-03-10 14:34:00,
2013-03-11 04:43:00,40.4,33.8,30.34,ENE,70,3.0,4.0,77,0.00,,,0.00,Wunderground v.1.15,2013-03-10 14:43:00,
2013-03-11 04:49:00,40.7,34.0,30.34,East,83,3.0,3.0,77,0.00,,,0.00,Wunderground v.1.15,2013-03-10 14:49:00,
2013-03-11 04:59:00,42.2,34.8,30.34,East,82,2.0,2.0,75,0.00,,,0.00,Wunderground v.1.15,2013-03-10 14:59:00,
2013-03-11 05:04:00,42.7,35.3,30.34,ENE,70,3.0,3.0,75,0.00,,,0.00,Wunderground v.1.15,2013-03-10 15:04:00,
2013-03-11 05:13:00,43.6,36.2,30.35,ENE,68,1.0,2.0,75,0.00,,,0.00,Wunderground v.1.15,2013-03-10 15:13:00,
2013-03-11 05:24:00,44.5,36.7,30.35,East,84,1.0,2.0,74,0.00,,,0.00,Wunderground v.1.15,2013-03-10 15:24:00,
2013-03-11 05:33:00,45.4,37.6,30.34,NE,53,2.0,2.0,74,0.00,,,0.00,Wunderground v.1.15,2013-03-10 15:33:00,
2013-03-11 05:39:00,46.2,38.0,30.35,East,99,2.0,2.0,73,0.00,,,0.00,Wunderground v.1.15,2013-03-10 15:39:00,
2013-03-11 05:48:00,47.7,39.1,30.35,ESE,103,2.0,4.0,72,0.00,,,0.00,Wunderground v.1.15,2013-03-10 15:48:00,
2013-03-11 05:54:00,48.5,39.9,30.35,East,86,2.0,4.0,72,0.00,,,0.00,Wunderground v.1.15,2013-03-10 15:54:00,
2013-03-11 06:04:00,49.8,40.4,30.35,East,91,1.0,2.0,70,0.00,,,0.00,Wunderground v.1.15,2013-03-10 16:04:00,
2013-03-11 06:14:00,51.4,41.6,30.35,East,101,1.0,2.0,69,0.00,,,0.00,Wunderground v.1.15,2013-03-10 16:14:00,
2013-03-11 06:23:00,52.9,42.6,30.36,SSE,151,2.0,2.0,68,0.00,,,0.00,Wunderground v.1.15,2013-03-10 16:23:00,
2013-03-11 06:29:00,53.4,42.7,30.36,ESE,106,2.0,4.0,67,0.00,,,0.00,Wunderground v.1.15,2013-03-10 16:29:00,
2013-03-11 06:34:00,53.6,42.9,30.36,SE,127,3.0,5.0,67,0.00,,,0.00,Wunderground v.1.15,2013-03-10 16:34:00,
2013-03-11 06:44:00,54.4,43.7,30.36,SW,233,3.0,5.0,67,0.00,,,0.00,Wunderground v.1.15,2013-03-10 16:44:00,
2013-03-11 06:54:00,54.4,43.7,30.36,SSE,160,4.0,4.0,67,0.00,,,0.00,Wunderground v.1.15,2013-03-10 16:54:00,
2013-03-11 07:04:00,54.5,43.8,30.35,SE,131,6.0,7.0,67,0.00,,,0.00,Wunderground v.1.15,2013-03-10 17:04:00,
2013-03-11 07:13:00,54.8,43.7,30.36,SSE,158,4.0,6.0,66,0.00,,,0.00,Wunderground v.1.15,2013-03-10 17:13:00,
2013-03-11 07:24:00,54.9,43.7,30.35,West,259,4.0,4.0,66,0.00,,,0.00,Wunderground v.1.15,2013-03-10 17:24:00,
2013-03-11 07:33:00,55.5,44.3,30.35,SSE,151,4.0,7.0,66,0.00,,,0.00,Wunderground v.1.15,2013-03-10 17:33:00,
2013-03-11 07:39:00,55.6,44.0,30.35,SW,221,4.0,4.0,65,0.00,,,0.00,Wunderground v.1.15,2013-03-10 17:39:00,
2013-03-11 07:48:00,56.4,44.4,30.35,SE,138,3.0,3.0,64,0.00,,,0.00,Wunderground v.1.15,2013-03-10 17:48:00,
2013-03-11 07:54:00,56.4,44.4,30.34,South,177,3.0,3.0,64,0.00,,,0.00,Wunderground v.1.15,2013-03-10 17:54:00,
2013-03-11 08:04:00,56.9,44.4,30.35,East,95,3.0,6.0,63,0.00,,,0.00,Wunderground v.1.15,2013-03-10 18:04:00,
2013-03-11 08:13:00,57.2,44.3,30.34,South,191,4.0,4.0,62,0.00,,,0.00,Wunderground v.1.15,2013-03-10 18:13:00,
2013-03-11 08:19:00,57.2,44.3,30.34,SSE,158,4.0,5.0,62,0.00,,,0.00,Wunderground v.1.15,2013-03-10 18:19:00,
2013-03-11 08:28:00,57.2,44.3,30.34,SSW,204,3.0,3.0,62,0.00,,,0.00,Wunderground v.1.15,2013-03-10 18:28:00,
2013-03-11 08:34:00,57.4,44.5,30.34,SW,226,4.0,4.0,62,0.00,,,0.00,Wunderground v.1.15,2013-03-10 18:34:00,
2013-03-11 08:43:00,58.6,45.2,30.35,South,184,2.0,3.0,61,0.00,,,0.00,Wunderground v.1.15,2013-03-10 18:43:00,
2013-03-11 08:48:00,58.9,44.6,30.35,South,185,1.0,1.0,59,0.00,,,0.00,Wunderground v.1.15,2013-03-10 18:48:00,
2013-03-11 08:54:00,58.8,44.5,30.34,SSE,149,1.0,1.0,59,0.00,,,0.00,Wunderground v.1.15,2013-03-10 18:54:00,
2013-03-11 09:04:00,60.1,45.3,30.34,West,259,1.0,3.0,58,0.00,,,0.00,Wunderground v.1.15,2013-03-10 19:04:00,
2013-03-11 09:13:00,60.7,45.4,30.34,SE,145,2.0,3.0,57,0.00,,,0.00,Wunderground v.1.15,2013-03-10 19:13:00,
2013-03-11 09:19:00,60.3,44.5,30.33,ESE,121,3.0,3.0,56,0.00,,,0.00,Wunderground v.1.15,2013-03-10 19:19:00,
2013-03-11 09:29:00,59.4,44.2,30.33,ESE,106,3.0,3.0,57,0.00,,,0.00,Wunderground v.1.15,2013-03-10 19:29:00,
2013-03-11 09:33:00,59.6,44.3,30.32,SSW,208,3.0,3.0,57,0.00,,,0.00,Wunderground v.1.15,2013-03-10 19:33:00,
2013-03-11 09:39:00,60.0,44.7,30.32,SSE,152,2.0,2.0,57,0.00,,,0.00,Wunderground v.1.15,2013-03-10 19:39:00,
2013-03-11 09:54:00,61.3,44.0,30.31,SSW,211,2.0,3.0,53,0.00,,,0.00,Wunderground v.1.15,2013-03-10 19:54:00,
2013-03-11 10:04:00,61.3,44.0,30.31,SSW,193,3.0,5.0,53,0.00,,,0.00,Wunderground v.1.15,2013-03-10 20:04:00,
2013-03-11 10:13:00,61.9,45.1,30.30,SE,142,3.0,4.0,54,0.00,,,0.00,Wunderground v.1.15,2013-03-10 20:13:00,
2013-03-11 10:24:00,61.9,44.6,30.31,SW,215,4.0,6.0,53,0.00,,,0.00,Wunderground v.1.15,2013-03-10 20:24:00,
2013-03-11 10:33:00,62.1,44.8,30.30,ESE,121,4.0,4.0,53,0.00,,,0.00,Wunderground v.1.15,2013-03-10 20:33:00,
2013-03-11 10:39:00,62.6,44.2,30.30,SSW,202,3.0,3.0,51,0.00,,,0.00,Wunderground v.1.15,2013-03-10 20:39:00,
2013-03-11 10:48:00,63.3,44.9,30.29,SE,140,2.0,6.0,51,0.00,,,0.00,Wunderground v.1.15,2013-03-10 20:48:00,
2013-03-11 10:54:00,63.5,44.5,30.29,SSE,164,2.0,6.0,50,0.00,,,0.00,Wunderground v.1.15,2013-03-10 20:54:00,
2013-03-11 11:04:00,64.0,43.9,30.28,SSE,160,3.0,3.0,48,0.00,,,0.00,Wunderground v.1.15,2013-03-10 21:04:00,
2013-03-11 11:14:00,64.2,43.5,30.28,SSE,162,3.0,5.0,47,0.00,,,0.00,Wunderground v.1.15,2013-03-10 21:14:00,
2013-03-11 11:23:00,64.1,43.4,30.28,South,177,2.0,6.0,47,0.00,,,0.00,Wunderground v.1.15,2013-03-10 21:23:00,
2013-03-11 11:29:00,63.9,43.3,30.28,WNW,297,2.0,2.0,47,0.00,,,0.00,Wunderground v.1.15,2013-03-10 21:29:00,
2013-03-11 11:34:00,64.8,43.5,30.28,SSE,155,2.0,2.0,46,0.00,,,0.00,Wunderground v.1.15,2013-03-10 21:34:00,
2013-03-11 11:44:00,64.4,43.7,30.28,ESE,115,3.0,3.0,47,0.00,,,0.00,Wunderground v.1.15,2013-03-10 21:44:00,
2013-03-11 11:49:00,64.6,43.9,30.28,East,99,2.0,2.0,47,0.00,,,0.00,Wunderground v.1.15,2013-03-10 21:49:00,
2013-03-11 11:59:00,65.7,43.8,30.28,SW,215,2.0,2.0,45,0.00,,,0.00,Wunderground v.1.15,2013-03-10 21:59:00,
2013-03-11 12:08:00,65.5,43.0,30.28,SW,222,4.0,6.0,44,0.00,,,0.00,Wunderground v.1.15,2013-03-10 22:08:00,
2013-03-11 12:14:00,65.2,43.3,30.27,WSW,255,4.0,6.0,45,0.00,,,0.00,Wunderground v.1.15,2013-03-10 22:14:00,
2013-03-11 12:23:00,65.9,42.8,30.27,WNW,290,3.0,4.0,43,0.00,,,0.00,Wunderground v.1.15,2013-03-10 22:23:00,
2013-03-11 12:29:00,65.7,43.2,30.27,South,181,2.0,2.0,44,0.00,,,0.00,Wunderground v.1.15,2013-03-10 22:29:00,
2013-03-11 12:34:00,66.2,43.0,30.28,South,189,3.0,7.0,43,0.00,,,0.00,Wunderground v.1.15,2013-03-10 22:34:00,
2013-03-11 12:43:00,66.3,42.5,30.28,SSW,211,3.0,4.0,42,0.00,,,0.00,Wunderground v.1.15,2013-03-10 22:43:00,
2013-03-11 12:49:00,66.2,41.8,30.27,SSW,201,3.0,3.0,41,0.00,,,0.00,Wunderground v.1.15,2013-03-10 22:49:00,
2013-03-11 12:59:00,66.6,42.2,30.27,ESE,106,2.0,2.0,41,0.00,,,0.00,Wunderground v.1.15,2013-03-10 22:59:00,
2013-03-11 13:09:00,67.3,41.5,30.27,SE,141,2.0,2.0,39,0.00,,,0.00,Wunderground v.1.15,2013-03-10 23:09:00,
2013-03-11 13:18:00,67.5,43.0,30.27,WSW,252,2.0,2.0,41,0.00,,,0.00,Wunderground v.1.15,2013-03-10 23:18:00,
2013-03-11 13:24:00,67.7,43.1,30.27,ESE,110,2.0,2.0,41,0.00,,,0.00,Wunderground v.1.15,2013-03-10 23:24:00,
2013-03-11 13:33:00,67.5,42.3,30.26,ESE,117,2.0,3.0,40,0.00,,,0.00,Wunderground v.1.15,2013-03-10 23:33:00,
2013-03-11 13:38:00,67.4,42.2,30.26,East,95,1.0,1.0,40,0.00,,,0.00,Wunderground v.1.15,2013-03-10 23:38:00,
2013-03-11 13:44:00,67.2,42.0,30.26,East,100,2.0,2.0,40,0.00,,,0.00,Wunderground v.1.15,2013-03-10 23:44:00,
2013-03-11 13:54:00,67.8,41.3,30.26,SE,145,1.0,2.0,38,0.00,,,0.00,Wunderground v.1.15,2013-03-10 23:54:00,
2013-03-11 14:04:00,68.2,42.3,30.25,ENE,70,2.0,3.0,39,0.00,,,0.00,Wunderground v.1.15,2013-03-11 00:04:00,
2013-03-11 14:14:00,67.6,41.7,30.25,ESE,120,3.0,4.0,39,0.00,,,0.00,Wunderground v.1.15,2013-03-11 00:14:00,
2013-03-11 14:23:00,67.5,42.3,30.25,East,82,2.0,5.0,40,0.00,,,0.00,Wunderground v.1.15,2013-03-11 00:23:00,
2013-03-11 14:29:00,67.1,42.0,30.25,ESE,120,3.0,3.0,40,0.00,,,0.00,Wunderground v.1.15,2013-03-11 00:29:00,
2013-03-11 14:34:00,67.0,41.9,30.25,SE,144,4.0,4.0,40,0.00,,,0.00,Wunderground v.1.15,2013-03-11 00:34:00,
2013-03-11 14:44:00,67.3,42.8,30.25,SE,133,3.0,3.0,41,0.00,,,0.00,Wunderground v.1.15,2013-03-11 00:44:00,
2013-03-11 14:53:00,66.5,42.7,30.24,SE,125,3.0,3.0,42,0.00,,,0.00,Wunderground v.1.15,2013-03-11 00:53:00,
2013-03-11 14:59:00,66.6,42.8,30.25,East,85,3.0,3.0,42,0.00,,,0.00,Wunderground v.1.15,2013-03-11 00:59:00,
2013-03-11 15:08:00,66.2,42.4,30.24,East,98,2.0,5.0,42,0.00,,,0.00,Wunderground v.1.15,2013-03-11 01:08:00,
2013-03-11 15:19:00,66.3,43.1,30.25,ESE,103,2.0,2.0,43,0.00,,,0.00,Wunderground v.1.15,2013-03-11 01:19:00,
2013-03-11 15:29:00,65.9,43.4,30.25,SSE,148,2.0,2.0,44,0.00,,,0.00,Wunderground v.1.15,2013-03-11 01:29:00,
2013-03-11 15:34:00,65.6,43.1,30.25,ESE,122,3.0,3.0,44,0.00,,,0.00,Wunderground v.1.15,2013-03-11 01:34:00,
2013-03-11 15:43:00,64.9,43.6,30.25,ESE,106,3.0,3.0,46,0.00,,,0.00,Wunderground v.1.15,2013-03-11 01:43:00,
2013-03-11 15:49:00,64.6,42.8,30.25,ESE,119,3.0,3.0,45,0.00,,,0.00,Wunderground v.1.15,2013-03-11 01:49:00,
2013-03-11 15:59:00,64.1,42.9,30.25,ESE,113,2.0,2.0,46,0.00,,,0.00,Wunderground v.1.15,2013-03-11 01:59:00,
2013-03-11 16:04:00,63.7,43.1,30.25,ESE,123,1.0,2.0,47,0.00,,,0.00,Wunderground v.1.15,2013-03-11 02:04:00,
2013-03-11 16:14:00,62.9,43.4,30.25,ESE,113,1.0,1.0,49,0.00,,,0.00,Wunderground v.1.15,2013-03-11 02:14:00,
2013-03-11 16:24:00,62.2,43.3,30.25,SE,134,1.0,2.0,50,0.00,,,0.00,Wunderground v.1.15,2013-03-11 02:24:00,
2013-03-11 16:33:00,61.6,43.8,30.25,SE,144,0.0,1.0,52,0.00,,,0.00,Wunderground v.1.15,2013-03-11 02:33:00,
2013-03-11 16:44:00,61.0,43.7,30.25,SE,127,0.0,1.0,53,0.00,,,0.00,Wunderground v.1.15,2013-03-11 02:44:00,
2013-03-11 16:54:00,60.4,43.7,30.25,SE,127,0.0,0.0,54,0.00,,,0.00,Wunderground v.1.15,2013-03-11 02:54:00,
2013-03-11 17:04:00,59.8,44.1,30.25,SE,127,0.0,0.0,56,0.00,,,0.00,Wunderground v.1.15,2013-03-11 03:04:00,
2013-03-11 17:14:00,59.3,44.1,30.25,ESE,115,0.0,0.0,57,0.00,,,0.00,Wunderground v.1.15,2013-03-11 03:14:00,
2013-03-11 17:23:00,58.9,43.7,30.25,SE,134,0.0,1.0,57,0.00,,,0.00,Wunderground v.1.15,2013-03-11 03:23:00,
2013-03-11 17:29:00,58.6,43.9,30.25,SE,125,0.0,0.0,58,0.00,,,0.00,Wunderground v.1.15,2013-03-11 03:29:00,
2013-03-11 17:39:00,58.2,43.5,30.25,SE,127,0.0,0.0,58,0.00,,,0.00,Wunderground v.1.15,2013-03-11 03:39:00,
2013-03-11 17:49:00,57.8,43.6,30.26,SE,127,0.0,0.0,59,0.00,,,0.00,Wunderground v.1.15,2013-03-11 03:49:00,
2013-03-11 17:59:00,57.4,43.6,30.26,SE,127,0.0,0.0,60,0.00,,,0.00,Wunderground v.1.15,2013-03-11 03:59:00,
2013-03-11 18:04:00,57.1,43.3,30.26,SE,128,0.0,0.0,60,0.00,,,0.00,Wunderground v.1.15,2013-03-11 04:04:00,
2013-03-11 18:14:00,56.8,43.5,30.25,SE,132,0.0,0.0,61,0.00,,,0.00,Wunderground v.1.15,2013-03-11 04:14:00,
2013-03-11 18:24:00,56.6,43.3,30.25,SE,124,0.0,0.0,61,0.00,,,0.00,Wunderground v.1.15,2013-03-11 04:24:00,
2013-03-11 18:33:00,56.3,43.4,30.25,SE,124,0.0,0.0,62,0.00,,,0.00,Wunderground v.1.15,2013-03-11 04:33:00,
2013-03-11 18:38:00,56.1,43.7,30.25,SE,124,0.0,0.0,63,0.00,,,0.00,Wunderground v.1.15,2013-03-11 04:38:00,
2013-03-11 18:44:00,55.8,43.4,30.25,SE,124,0.0,0.0,63,0.00,,,0.00,Wunderground v.1.15,2013-03-11 04:44:00,
2013-03-11 18:53:00,55.8,43.4,30.25,ESE,117,0.0,1.0,63,0.00,,,0.00,Wunderground v.1.15,2013-03-11 04:53:00,
2013-03-11 19:04:00,55.5,43.5,30.25,ESE,117,0.0,0.0,64,0.00,,,0.00,Wunderground v.1.15,2013-03-11 05:04:00,
2013-03-11 19:14:00,55.1,43.5,30.26,ESE,117,0.0,0.0,65,0.00,,,0.00,Wunderground v.1.15,2013-03-11 05:14:00,
2013-03-11 19:23:00,54.8,43.7,30.26,ENE,76,1.0,1.0,66,0.00,,,0.00,Wunderground v.1.15,2013-03-11 05:23:00,
2013-03-11 19:29:00,54.6,43.5,30.26,ENE,72,1.0,2.0,66,0.00,,,0.00,Wunderground v.1.15,2013-03-11 05:29:00,
2013-03-11 19:38:00,54.3,43.6,30.26,ENE,73,2.0,2.0,67,0.00,,,0.00,Wunderground v.1.15,2013-03-11 05:38:00,
2013-03-11 19:48:00,53.9,43.6,30.26,ENE,72,2.0,2.0,68,0.00,,,0.00,Wunderground v.1.15,2013-03-11 05:48:00,
2013-03-11 19:54:00,53.6,43.7,30.26,ENE,72,2.0,2.0,69,0.00,,,0.00,Wunderground v.1.15,2013-03-11 05:54:00,
2013-03-11 20:04:00,53.2,44.0,30.25,East,82,2.0,2.0,71,0.00,,,0.00,Wunderground v.1.15,2013-03-11 06:04:00,
2013-03-11 20:14:00,52.8,44.4,30.26,East,81,2.0,3.0,73,0.00,,,0.00,Wunderground v.1.15,2013-03-11 06:14:00,
2013-03-11 20:19:00,52.7,44.3,30.25,East,79,2.0,3.0,73,0.00,,,0.00,Wunderground v.1.15,2013-03-11 06:19:00,
2013-03-11 20:28:00,52.3,44.6,30.26,ENE,70,2.0,3.0,75,0.00,,,0.00,Wunderground v.1.15,2013-03-11 06:28:00,
2013-03-11 20:34:00,52.2,44.5,30.25,ENE,72,2.0,3.0,75,0.00,,,0.00,Wunderground v.1.15,2013-03-11 06:34:00,
2013-03-11 20:44:00,52.0,44.7,30.25,East,87,2.0,2.0,76,0.00,,,0.00,Wunderground v.1.15,2013-03-11 06:44:00,
2013-03-11 20:49:00,51.9,44.9,30.25,ENE,78,2.0,2.0,77,0.00,,,0.00,Wunderground v.1.15,2013-03-11 06:49:00,
2013-03-11 20:59:00,51.6,45.0,30.25,ENE,68,2.0,2.0,78,0.00,,,0.00,Wunderground v.1.15,2013-03-11 06:59:00,
2013-03-11 21:04:00,51.4,44.8,30.25,ENE,73,2.0,2.0,78,0.00,,,0.00,Wunderground v.1.15,2013-03-11 07:04:00,
2013-03-11 21:14:00,51.1,44.8,30.25,East,83,2.0,2.0,79,0.00,,,0.00,Wunderground v.1.15,2013-03-11 07:14:00,
2013-03-11 21:24:00,51.0,44.7,30.25,ENE,74,2.0,3.0,79,0.00,,,0.00,Wunderground v.1.15,2013-03-11 07:24:00,
2013-03-11 21:33:00,50.8,44.9,30.25,ENE,61,1.0,3.0,80,0.00,,,0.00,Wunderground v.1.15,2013-03-11 07:33:00,
2013-03-11 21:39:00,50.8,44.9,30.25,East,79,2.0,3.0,80,0.00,,,0.00,Wunderground v.1.15,2013-03-11 07:39:00,
2013-03-11 21:48:00,50.7,44.8,30.25,East,86,3.0,3.0,80,0.00,,,0.00,Wunderground v.1.15,2013-03-11 07:48:00,
2013-03-11 21:54:00,50.8,44.9,30.25,ENE,68,3.0,4.0,80,0.00,,,0.00,Wunderground v.1.15,2013-03-11 07:54:00,
2013-03-11 22:04:00,50.8,44.9,30.25,ENE,75,3.0,3.0,80,0.00,,,0.00,Wunderground v.1.15,2013-03-11 08:04:00,
2013-03-11 22:13:00,50.7,44.8,30.24,ENE,76,2.0,2.0,80,0.00,,,0.00,Wunderground v.1.15,2013-03-11 08:13:00,
2013-03-11 22:19:00,50.6,44.7,30.24,ENE,71,2.0,2.0,80,0.00,,,0.00,Wunderground v.1.15,2013-03-11 08:19:00,
2013-03-11 22:29:00,50.5,44.9,30.24,East,89,2.0,2.0,81,0.00,,,0.00,Wunderground v.1.15,2013-03-11 08:29:00,
2013-03-11 22:34:00,50.3,44.7,30.24,ENE,71,2.0,2.0,81,0.00,,,0.00,Wunderground v.1.15,2013-03-11 08:34:00,
2013-03-11 22:44:00,49.9,44.6,30.24,ENE,74,2.0,2.0,82,0.00,,,0.00,Wunderground v.1.15,2013-03-11 08:44:00,
2013-03-11 22:53:00,49.7,44.7,30.24,ENE,75,2.0,3.0,83,0.00,,,0.00,Wunderground v.1.15,2013-03-11 08:53:00,
2013-03-11 22:59:00,49.7,44.7,30.24,NE,49,3.0,3.0,83,0.00,,,0.00,Wunderground v.1.15,2013-03-11 08:59:00,
2013-03-11 23:04:00,49.6,44.6,30.24,ENE,74,2.0,3.0,83,0.00,,,0.00,Wunderground v.1.15,2013-03-11 09:04:00,
2013-03-11 23:18:00,49.5,44.6,30.25,ENE,67,1.0,2.0,83,0.00,,,0.00,Wunderground v.1.15,2013-03-11 09:18:00,
2013-03-11 23:24:00,49.4,44.5,30.25,ENE,65,1.0,2.0,83,0.00,,,0.00,Wunderground v.1.15,2013-03-11 09:24:00,
2013-03-11 23:33:00,49.2,44.3,30.25,ENE,70,0.0,1.0,83,0.00,,,0.00,Wunderground v.1.15,2013-03-11 09:33:00,
2013-03-11 23:44:00,49.0,44.1,30.24,ENE,74,0.0,1.0,83,0.00,,,0.00,Wunderground v.1.15,2013-03-11 09:44:00,
2013-03-11 23:49:00,49.2,44.3,30.24,East,85,1.0,1.0,83,0.00,,,0.00,Wunderground v.1.15,2013-03-11 09:49:00,
2013-03-11 23:59:00,49.1,44.2,30.24,East,79,1.0,1.0,83,0.00,,,0.00,Wunderground v.1.15,2013-03-11 09:59:00,